sat.trackr.live / text

‹ back to catalog

STARLINK-34886

NORAD 65683 · 2025-212H

PAYLOAD ACTIVE UNKNOWN

§ Identity

Operator
Country
US
Launch date
2025-09-21
Launch site
AFETR
Launch vehicle
Mass (kg)
RCS (m²)

Purposes: comms

External: N2YO · Heavens-Above · Gunter

§ Orbital elements

Epoch: 2026-09-20T06:17:02.857632Z

Period
94.01 min
Inclination
53.1572°
Eccentricity
0.0000877
Mean motion
15.31740340 rev/d
Perigee alt
470.0 km
Apogee alt
471.2 km
Semi-major
6,848.8 km
B*
7.4894e-4
RAAN
160.4733°
Arg perigee
89.8660°
Mean anomaly
270.2442°
Rev number
5,700

§ Raw data

STARLINK-348861 65683U 25212H   26263.26183863  .00022976  00000+0  74894-3 0  99962 65683  53.1572 160.4733 0000877  89.8660 270.2442 15.31740340 57007

JSON: /api/v1/satellites/65683 · /tle

For live sub-satellite position, see the globe view (requires WebGL).

§ Visibility from observer

Set your observer location to see the next 7 days of passes ≥ 10°. The values pass through the URL so the page stays shareable.

No JS? Fill the form by hand. The geolocation button needs JavaScript.